Location: *
(45.1333°S, 169.6333°W)
Time: 21:18:17
(UTC+00:00)

Landsat 5 - Pass Details

Date: 26 May 2022
Orbit: 528 x 649 km, 98.2° (Epoch: 01 July)

Event Time Altitude Azimuth Distance (km) Brightness Sun altitude
Rises 04:26:57 0° 43° (NE) 2,957 6.8 -6.7°
Reaches altitude 10° 04:29:23 10° 54° (NE) 2,045 5.9 -7.1°
Maximum altitude 04:33:13 29° 113° (ESE) 1,178 4.4 -7.7°
Drops below altitude 10° 04:37:01 10° 172° (S) 2,019 5.9 -8.3°
Sets 04:39:24 0° 183° (S) 2,913 6.8 -8.7°
